Estación de Trinidad

Ultimos registro cada 15 minutos 38
Estación Fecha / Hora Temperatura Humedad Lluvia Velocidad Dirección Radiación Presion
38 Trinidad 08-05-2026 09:15 6,9 86 0 0 4 125 1024,2
37 Trinidad 08-05-2026 09:00 5,8 90 0 0 5 35 1024,5
36 Trinidad 08-05-2026 08:45 5 92 0 0 5 113 1024,4
35 Trinidad 08-05-2026 08:30 4,2 92 0 0 5 172 1024,3
34 Trinidad 08-05-2026 08:15 3,3 92 0 0 5 111 1024,3
33 Trinidad 08-05-2026 08:00 2,7 91 0 0 5 26 1023,8
32 Trinidad 08-05-2026 07:45 2,8 90 0 0 5 14 1023,7
31 Trinidad 08-05-2026 07:30 3,2 90 0 0,4 5 5 1023,9
30 Trinidad 08-05-2026 07:15 3,1 90 0 0,4 5 0 1023,9
29 Trinidad 08-05-2026 07:00 3,3 91 0 0 7 0 1024,2
28 Trinidad 08-05-2026 06:45 3,1 89 0 0,9 8 0 1024,2
27 Trinidad 08-05-2026 06:30 3,8 89 0 0 8 0 1024,3
26 Trinidad 08-05-2026 06:15 4,1 89 0 0 8 0 1024,5
25 Trinidad 08-05-2026 06:00 4,3 90 0 0,4 8 0 1024,4
24 Trinidad 08-05-2026 05:45 4,1 91 0 0 343 0 1024,3
23 Trinidad 08-05-2026 05:30 4,1 91 0 0 165 0 1024,7
22 Trinidad 08-05-2026 05:15 3,5 90 0 0 165 0 1024,6
21 Trinidad 08-05-2026 05:00 3,1 89 0 0 165 0 1024,4
20 Trinidad 08-05-2026 04:45 3,5 89 0 0 165 0 1024,3
19 Trinidad 08-05-2026 04:30 3,8 88 0 0 165 0 1024,4
18 Trinidad 08-05-2026 04:15 4,2 90 0 0 165 0 1024,3
17 Trinidad 08-05-2026 04:00 3,3 88 0 0 165 0 1024,6
16 Trinidad 08-05-2026 03:45 3,4 88 0 0 165 0 1024,6
15 Trinidad 08-05-2026 03:30 3,6 86 0 0 165 0 1025,1
14 Trinidad 08-05-2026 03:15 4,5 85 0 0,4 165 0 1025,3
13 Trinidad 08-05-2026 03:00 4,6 86 0 0,9 165 0 1025,2
12 Trinidad 08-05-2026 02:45 4,9 83 0 0 165 0 1025,3
11 Trinidad 08-05-2026 02:30 5,7 81 0 0 165 0 1025,2
10 Trinidad 08-05-2026 02:15 6,9 80 0 0 165 0 1025,4
9 Trinidad 08-05-2026 02:00 5,8 82 0 0,9 165 0 1025,4
8 Trinidad 08-05-2026 01:45 6,4 80 0 0,4 165 0 1025,4
7 Trinidad 08-05-2026 01:30 7,4 77 0 0 165 0 1025,6
6 Trinidad 08-05-2026 01:15 7,8 76 0 0,4 165 0 1025,5
5 Trinidad 08-05-2026 01:00 7,7 76 0 0,4 165 0 1025,8
4 Trinidad 08-05-2026 00:45 8,1 74 0 0,9 165 0 1026
3 Trinidad 08-05-2026 00:30 8,2 74 0 0,9 165 0 1025,9
2 Trinidad 08-05-2026 00:15 8,5 74 0 0,9 165 0 1026,1
1 Trinidad 08-05-2026 00:00 8,8 73 0 0,9 166 0 1026,1